Find Starlink 6231

NORAD ID: 56779 Int'l Des: 2023-078 Owner: SPXS Country: US Constellation: starlink operational
LEOCIRCULAR

リアルタイム位置

3D地球を読み込み中...

Starlink 6231について

説明を読み込み中...

次回通過

Passes for default location (London). Set your location on the main map for personalized predictions.

高度履歴

Loading altitude history...

軌道要素

1 56779U 23078N 26124.50269320 .00002246 00000-0 19595-3 0 9992
2 56779 70.0000 183.7355 0003577 266.7705 93.3045 14.98326920161523
Epoch: May 4, 2026 • Age: 19 hours

現在のステータス

高度 576.9 km
速度 7.57 km/s
衛星直下点 -13.85°S, 154.97°W
打ち上げ日 May 31, 2023
運用期間 2.9 years
タイプ internet

技術仕様

分類 Payload
質量 305.00 kg
乾燥質量 290.00 kg
総質量 305.00 kg
長さ 0.20 m
直径 2.80 m
スパン 9.00 m
形状 Box + pan
製造者 SPXS
バスタイプ Starlink
フェーズステータス In Orbit
所有者/国 SPXS/US

Most Searched